When you browse on this site, cookies collect data to enhance your experience and personalize the content and advertising you see.
Visit our Privacy Policy to learn more. By continuing to use the site, you agree to this use of cookies and data.
  • In Czech Republic
  • List of Countries
  • For 7 days
  • Water Temperature
  • Satellite Maps
  • Weather Map
  • Weather Widgets
  • user-avatar
    Login

    Hourly Weather Cachungo

    Today, 17 December, Monday

    Time Temperature Precipitation Wind Pressure Humidity
    00:00 +27°C° 0 mm 3 mps 758 mmHg 22%
    01:00 +26°C° 0 mm 3 mps 758 mmHg 21%
    02:00 +25°C° 0 mm 3 mps 758 mmHg 21%
    03:00 +25°C° 0 mm 3 mps 758 mmHg 20%
    04:00 +24°C° 0 mm 3 mps 758 mmHg 19%
    05:00 +24°C° 0 mm 3 mps 758 mmHg 18%
    06:00 +25°C° 0 mm 3 mps 758 mmHg 16%
    07:00 +26°C° 0 mm 3 mps 759 mmHg 14%
    08:00 +27°C° 0 mm 4 mps 759 mmHg 13%
    09:00 +30°C° 0 mm 4 mps 759 mmHg 11%
    10:00 +34°C° 0 mm 4 mps 758 mmHg 9%
    11:00 +38°C° 0 mm 4 mps 758 mmHg 7%
    12:00 +39°C° 0 mm 3 mps 758 mmHg 7%
    13:00 +40°C° 0 mm 3 mps 757 mmHg 7%
    14:00 +41°C° 0 mm 2 mps 757 mmHg 7%
    15:00 +39°C° 0 mm 2 mps 757 mmHg 10%
    16:00 +38°C° 0 mm 3 mps 757 mmHg 12%
    17:00 +36°C° 0 mm 3 mps 756 mmHg 15%
    18:00 +34°C° 0 mm 3 mps 757 mmHg 22%
    19:00 +30°C° 0 mm 3 mps 757 mmHg 30%
    20:00 +28°C° 0 mm 3 mps 758 mmHg 37%
    21:00 +27°C° 0 mm 3 mps 758 mmHg 39%
    22:00 +26°C° 0 mm 3 mps 758 mmHg 41%
    23:00 +26°C° 0 mm 3 mps 758 mmHg 43%

    Tomorrow, 18 December, Tuesday

    Time Temperature Precipitation Wind Pressure Humidity
    00:00 +25°C° 0 mm 3 mps 758 mmHg 42%
    01:00 +25°C° 0 mm 3 mps 758 mmHg 41%
    02:00 +24°C° 0 mm 3 mps 758 mmHg 39%
    03:00 +24°C° 0 mm 3 mps 758 mmHg 36%
    04:00 +22°C° 0 mm 3 mps 758 mmHg 32%
    05:00 +22°C° 0 mm 3 mps 758 mmHg 28%
    06:00 +24°C° 0 mm 3 mps 758 mmHg 24%
    07:00 +25°C° 0 mm 3 mps 758 mmHg 21%
    08:00 +27°C° 0 mm 4 mps 759 mmHg 17%
    09:00 +30°C° 0 mm 3 mps 759 mmHg 14%
    10:00 +34°C° 0 mm 3 mps 759 mmHg 11%
    11:00 +37°C° 0 mm 3 mps 759 mmHg 9%
    12:00 +38°C° 0 mm 3 mps 758 mmHg 8%
    13:00 +39°C° 0 mm 2 mps 757 mmHg 8%
    14:00 +40°C° 0 mm 2 mps 757 mmHg 8%
    15:00 +39°C° 0 mm 2 mps 756 mmHg 11%
    16:00 +38°C° 0 mm 2 mps 756 mmHg 14%
    17:00 +36°C° 0 mm 3 mps 756 mmHg 17%
    18:00 +34°C° 0 mm 3 mps 757 mmHg 22%
    19:00 +30°C° 0 mm 3 mps 757 mmHg 27%
    20:00 +28°C° 0 mm 3 mps 758 mmHg 32%
    21:00 +27°C° 0 mm 3 mps 758 mmHg 30%
    22:00 +26°C° 0 mm 3 mps 758 mmHg 28%
    23:00 +26°C° 0 mm 3 mps 758 mmHg 26%

    Day after tomorrow, 19 December, Wednesday

    Time Temperature Precipitation Wind Pressure Humidity
    00:00 +25°C° 0 mm 3 mps 758 mmHg 24%
    01:00 +25°C° 0 mm 3 mps 758 mmHg 23%
    02:00 +24°C° 0 mm 3 mps 758 mmHg 21%
    03:00 +24°C° 0 mm 3 mps 758 mmHg 20%
    04:00 +22°C° 0 mm 3 mps 758 mmHg 19%
    05:00 +22°C° 0 mm 3 mps 758 mmHg 18%
    06:00 +23°C° 0 mm 4 mps 758 mmHg 18%
    07:00 +25°C° 0 mm 4 mps 758 mmHg 17%
    08:00 +27°C° 0 mm 4 mps 759 mmHg 17%
    09:00 +30°C° 0 mm 4 mps 759 mmHg 15%
    10:00 +34°C° 0 mm 4 mps 759 mmHg 13%
    11:00 +37°C° 0 mm 4 mps 759 mmHg 11%
    12:00 +38°C° 0 mm 3 mps 758 mmHg 10%
    13:00 +39°C° 0 mm 3 mps 757 mmHg 10%
    14:00 +40°C° 0 mm 2 mps 756 mmHg 9%
    15:00 +39°C° 0 mm 2 mps 756 mmHg 11%
    16:00 +38°C° 0 mm 2 mps 756 mmHg 13%
    17:00 +37°C° 0 mm 2 mps 755 mmHg 15%
    18:00 +34°C° 0 mm 3 mps 756 mmHg 20%
    19:00 +31°C° 0 mm 3 mps 757 mmHg 25%
    20:00 +28°C° 0 mm 3 mps 757 mmHg 30%
    21:00 +27°C° 0 mm 3 mps 757 mmHg 30%
    22:00 +26°C° 0 mm 3 mps 758 mmHg 29%
    23:00 +26°C° 0 mm 3 mps 758 mmHg 29%

    20 December, Thursday

    Time Temperature Precipitation Wind Pressure Humidity
    00:00 +25°C° 0 mm 3 mps 757 mmHg 29%
    01:00 +25°C° 0 mm 3 mps 757 mmHg 30%
    02:00 +24°C° 0 mm 3 mps 757 mmHg 30%
    03:00 +24°C° 0 mm 3 mps 757 mmHg 27%
    04:00 +22°C° 0 mm 3 mps 757 mmHg 24%
    05:00 +22°C° 0 mm 3 mps 757 mmHg 20%
    06:00 +23°C° 0 mm 4 mps 757 mmHg 19%
    07:00 +25°C° 0 mm 4 mps 758 mmHg 17%
    08:00 +27°C° 0 mm 4 mps 758 mmHg 15%
    09:00 +30°C° 0 mm 4 mps 758 mmHg 13%
    10:00 +34°C° 0 mm 4 mps 758 mmHg 11%
    11:00 +37°C° 0 mm 4 mps 758 mmHg 9%
    12:00 +38°C° 0 mm 3 mps 757 mmHg 9%
    13:00 +40°C° 0 mm 3 mps 756 mmHg 9%
    14:00 +41°C° 0 mm 2 mps 755 mmHg 8%
    15:00 +40°C° 0 mm 2 mps 755 mmHg 11%
    16:00 +38°C° 0 mm 2 mps 755 mmHg 13%
    17:00 +37°C° 0 mm 2 mps 755 mmHg 16%
    18:00 +34°C° 0 mm 2 mps 755 mmHg 21%
    19:00 +31°C° 0 mm 3 mps 756 mmHg 27%
    20:00 +28°C° 0 mm 3 mps 756 mmHg 32%
    21:00 +27°C° 0 mm 2 mps 757 mmHg 33%
    22:00 +27°C° 0 mm 2 mps 757 mmHg 33%
    23:00 +26°C° 0 mm 2 mps 757 mmHg 34%

    21 December, Friday

    Time Temperature Precipitation Wind Pressure Humidity
    00:00 +25°C° 0 mm 2 mps 757 mmHg 33%
    01:00 +25°C° 0 mm 2 mps 756 mmHg 32%
    02:00 +24°C° 0 mm 2 mps 756 mmHg 31%
    03:00 +24°C° 0 mm 2 mps 756 mmHg 31%
    04:00 +24°C° 0 mm 2 mps 756 mmHg 32%
    05:00 +23°C° 0 mm 2 mps 756 mmHg 33%
    06:00 +24°C° 0 mm 2 mps 757 mmHg 33%
    07:00 +26°C° 0 mm 2 mps 757 mmHg 33%
    08:00 +27°C° 0 mm 3 mps 758 mmHg 33%
    09:00 +30°C° 0 mm 3 mps 757 mmHg 27%
    10:00 +34°C° 0 mm 3 mps 757 mmHg 22%
    11:00 +37°C° 0 mm 4 mps 757 mmHg 16%
    12:00 +38°C° 0 mm 4 mps 756 mmHg 15%
    13:00 +40°C° 0 mm 4 mps 755 mmHg 15%
    14:00 +41°C° 0 mm 4 mps 755 mmHg 14%
    15:00 +40°C° 0 mm 4 mps 755 mmHg 21%
    16:00 +37°C° 0 mm 4 mps 755 mmHg 27%
    17:00 +35°C° 0 mm 4 mps 755 mmHg 34%
    18:00 +33°C° 0 mm 4 mps 755 mmHg 45%
    19:00 +30°C° 0 mm 3 mps 756 mmHg 57%
    20:00 +27°C° 0 mm 3 mps 757 mmHg 68%
    21:00 +27°C° 0 mm 3 mps 757 mmHg 72%
    22:00 +26°C° 0 mm 2 mps 757 mmHg 76%
    23:00 +26°C° 0 mm 2 mps 757 mmHg 79%

    22 December, Saturday

    Time Temperature Precipitation Wind Pressure Humidity
    00:00 +26°C° 0 mm 2 mps 757 mmHg 81%
    01:00 +25°C° 0 mm 1 mps 756 mmHg 83%
    02:00 +25°C° 0 mm 1 mps 756 mmHg 85%
    03:00 +24°C° 0 mm 1 mps 756 mmHg 86%
    04:00 +24°C° 0 mm 1 mps 756 mmHg 87%
    05:00 +24°C° 0 mm 1 mps 756 mmHg 89%
    06:00 +25°C° 0 mm 1 mps 757 mmHg 82%
    07:00 +26°C° 0 mm 1 mps 757 mmHg 76%
    08:00 +27°C° 0 mm 1 mps 758 mmHg 69%
    09:00 +30°C° 0 mm 1 mps 757 mmHg 54%
    10:00 +34°C° 0 mm 2 mps 757 mmHg 38%
    11:00 +37°C° 0 mm 2 mps 757 mmHg 22%
    12:00 +37°C° 0 mm 2 mps 756 mmHg 22%
    13:00 +38°C° 0 mm 3 mps 755 mmHg 22%
    14:00 +39°C° 0 mm 3 mps 755 mmHg 21%
    15:00 +37°C° 0 mm 4 mps 755 mmHg 29%
    16:00 +35°C° 0 mm 4 mps 755 mmHg 37%
    17:00 +34°C° 0 mm 4 mps 755 mmHg 46%
    18:00 +32°C° 0 mm 4 mps 755 mmHg 55%
    19:00 +29°C° 0 mm 4 mps 756 mmHg 65%
    20:00 +27°C° 0 mm 3 mps 756 mmHg 75%
    21:00 +27°C° 0 mm 3 mps 756 mmHg 77%
    22:00 +26°C° 0 mm 3 mps 756 mmHg 80%
    23:00 +26°C° 0 mm 3 mps 757 mmHg 82%
    Show more